49P/Arend-Rigaux (2018)

Japanese version
Home page
Updated on August 20, 2016

---------------------------------------------------------------------

* Profile

* Orbital Elements

Epoch 2018 July 21.0 TT = JDT 2458320.5
T 2018 July 15.49713 TT                                 Kobayashi
q   1.4296062            (2000.0)            P               Q
n   0.14618313     Peri.  332.88787     -0.05172726     -0.95687557
a   3.5689288      Node   118.82418     +0.96518841     -0.12138870
e   0.5994299      Incl.   19.04319     +0.25638960     +0.26392030
P   6.74
From 2839 observations 1951 Feb. 7-2014 July 26, mean residual 0".6.
     Nongravitational parameters A1 = +0.02, A2 = -0.0005.

* Finding Charts

* Magnitudes Graph

        H = 13.5  G = 0.15                       [   , -80]  (             - 2018 Apr. 26)
        m1 = 8.0 + 5 log d + 30.0 log r(t - 10)  [-80, 117]  (2018 Apr. 26 - 2018 Nov.  9)
        H = 13.5  G = 0.15                       [117,    ]  (2018 Nov.  9 -             )

---------------------------------------------------------------------

The orbital elements are published on M.P.E.C. 2015-M77.
The charts are made with StellaNavigator Ver.8 (AstroArts).
The magnitudes graphs are made with Comet for Windows.

---------------------------------------------------------------------

Copyright(C) Seiichi Yoshida (comet@aerith.net). All rights reserved.